Powrót do katalogu

GLOBALSTAR M015

AktywnyŁącznośćLEO
NORAD 25308·PAYLOAD·🇺🇸 United States

Wystrzelony Apr 24, 1998 z Cape Canaveral Space Force Station

Loading…

Następne Przeloty (najbliższe 24 godziny)

TLE

ŚwieżeSource: Space-Track

Epoka: Sep 14, 2026, 09:06 UTC

1 25308U 98023C   26257.37966005 -.00000022  00000-0  11691-2 0  9993
2 25308  51.9815 283.8006 0013242 166.0271 207.4659 11.48866152246288

Śledź GLOBALSTAR M015 w czasie rzeczywistym z AllMySat

Download on the App Store